DateTimeUTC,F1_A11,F1_S11,BsB_S11,BsG_S11,BsR_S11,BbsB_S11,BbsG_S11,BbsR_S11,BaB_A11,BaG_A11,BaR_A11,Tu_S11,T_S11,Uu_S11,U_S11,P_S11,T1_A11
2021-07-15T06:00:00Z,00000200,20000000,,,,,,,0000.02,-000.09,0000.09,18.1,24.8,06.9,04.6,0660.4,31.0
2021-07-15T06:01:00Z,00000200,20000000,,,,,,,-000.29,-000.02,-000.07,18.1,24.8,06.9,04.6,0660.4,31.0
2021-07-15T06:02:00Z,00000200,20000000,,,,,,,0000.25,-000.02,0000.23,18.1,24.8,06.9,04.6,0660.4,31.0
2021-07-15T06:03:00Z,00000200,60000000,,,,,,,-000.01,0000.16,0000.04,18.1,24.8,06.9,04.6,0660.4,31.0
2021-07-15T06:04:00Z,00000200,40000000,0000.61,0000.58,0000.60,0000.82,-000.17,0000.24,0000.18,-000.06,-000.35,18.1,24.6,07.0,04.7,0661.3,31.0
2021-07-15T06:05:00Z,00000200,00000000,0000.84,0000.44,0000.12,0000.59,-000.28,0000.33,0000.21,-000.12,0000.23,18.1,24.5,07.0,04.7,0661.3,31.0
2021-07-15T06:06:00Z,00000200,00000000,0000.87,0000.42,0000.50,0000.69,0000.08,0000.50,-000.06,0000.60,-000.02,18.1,24.5,07.0,04.7,0661.3,31.0
2021-07-15T06:07:00Z,00000200,00000000,0000.58,0000.08,0000.57,0000.46,-000.12,0000.03,0000.19,-000.28,0000.52,18.2,24.5,07.0,04.8,0661.3,31.0
2021-07-15T06:08:00Z,00000200,00000000,0000.59,0000.19,0000.51,0000.49,-000.25,0000.08,-000.28,0000.21,-000.23,18.3,24.6,07.0,04.8,0661.3,31.0
2021-07-15T06:09:00Z,00000200,00000000,0000.55,0000.43,0000.07,0000.26,0000.20,0000.17,0000.19,-000.24,-000.07,18.3,24.6,07.0,04.8,0661.4,31.0
2021-07-15T06:10:00Z,00000200,00000000,0000.34,0000.42,0000.58,0000.46,0000.41,-000.06,-000.19,0000.11,0000.04,18.4,24.6,07.0,04.8,0661.4,31.0
2021-07-15T06:11:00Z,00000200,00000000,0000.61,0000.56,0000.36,0000.15,0000.26,0000.35,-000.21,-000.36,0000.09,18.3,24.6,07.0,04.8,0661.4,31.0
2021-07-15T06:12:00Z,00000200,00000000,0000.36,0000.48,0000.56,-000.36,0000.02,0000.08,0000.38,0000.38,-000.31,18.3,24.6,07.0,04.7,0661.4,31.0
2021-07-15T06:13:00Z,00000200,00000000,0001.24,0000.31,0000.43,0000.31,-000.20,-000.08,-000.08,-000.08,0000.19,18.3,24.6,07.0,04.8,0661.4,31.0
2021-07-15T06:14:00Z,00000200,00000000,0000.52,0000.42,0000.21,0000.08,-000.10,0000.17,-000.27,0000.12,-000.07,18.3,24.6,07.1,04.8,0661.4,31.0
2021-07-15T06:15:00Z,00000200,00000000,0000.40,0000.34,0000.49,0000.07,-000.02,0000.14,0000.23,-000.06,-000.01,18.2,24.6,07.2,04.9,0661.4,31.0
2021-07-15T06:16:00Z,00000200,00000000,0000.54,0000.24,0000.48,0000.64,-000.13,0000.50,-000.25,-000.08,0000.23,18.2,24.5,07.2,04.9,0661.4,31.0
2021-07-15T06:17:00Z,00000200,00000000,0000.11,0000.52,0000.39,-000.42,-000.03,0000.13,0000.37,0000.06,-000.23,18.2,24.5,07.2,04.8,0661.4,31.0
2021-07-15T06:18:00Z,00000200,00000000,0000.63,0000.03,0000.12,0000.59,0000.06,0000.26,0000.16,-000.17,0000.49,18.1,24.5,07.2,04.9,0661.4,31.0
2021-07-15T06:19:00Z,00000200,00000000,0000.40,0000.31,0000.44,0000.06,-000.17,0000.51,0000.23,0000.29,-000.23,18.1,24.5,07.2,04.9,0661.4,31.0
2021-07-15T06:20:00Z,00000200,00000000,-000.05,0000.23,0000.46,0000.32,-000.24,0000.31,-000.42,0000.19,-000.16,18.1,24.5,07.3,05.0,0661.4,31.0
2021-07-15T06:21:00Z,00000200,00000000,0000.32,0000.41,0000.51,0000.67,-000.08,0000.09,0000.22,0000.15,-000.02,18.1,24.5,07.5,05.0,0661.4,31.0
2021-07-15T06:22:00Z,00000200,00000000,-000.12,0000.47,0000.03,0000.05,-000.01,0000.12,0000.26,-000.12,0000.19,18.2,24.5,07.5,05.1,0661.4,31.0
2021-07-15T06:23:00Z,00000200,00000000,0000.52,0000.21,0000.19,-000.29,-000.05,0000.21,0000.11,-000.02,0000.16,18.3,24.5,07.5,05.1,0661.4,31.0
2021-07-15T06:24:00Z,00000200,00000000,0000.46,0000.30,0000.23,0000.57,-000.19,-000.11,-000.08,0000.16,0000.16,18.4,24.6,07.5,05.1,0661.4,31.0
2021-07-15T06:25:00Z,00000200,00000000,0000.47,0000.55,0000.35,-000.65,-000.30,0000.16,0000.02,0000.08,-000.07,18.4,24.6,07.4,05.1,0661.4,31.0
2021-07-15T06:26:00Z,00000200,00000000,0000.40,0000.31,0000.13,0000.67,-000.11,0000.24,-000.04,0000.24,0000.00,18.4,24.6,07.5,05.1,0661.5,31.0
2021-07-15T06:27:00Z,00000200,00000000,0000.36,0000.19,0000.05,0000.56,0000.09,-000.02,-000.07,-000.19,0000.01,18.4,24.6,07.5,05.1,0661.5,31.0
2021-07-15T06:28:00Z,00000200,00000000,0000.60,0000.41,0000.46,0000.34,-000.08,0000.43,0000.29,-000.25,0000.14,18.3,24.6,07.6,05.2,0661.4,31.0
2021-07-15T06:29:00Z,00000200,00000000,0000.24,0000.35,0000.30,-000.05,-000.02,0000.23,-000.07,0000.24,-000.13,18.3,24.5,07.6,05.1,0661.4,31.0
2021-07-15T06:30:00Z,00000200,00000000,0000.46,0000.12,0000.09,0000.63,-000.03,0000.03,-000.24,-000.04,-000.12,18.3,24.5,07.5,05.1,0661.4,31.0
2021-07-15T06:31:00Z,00000200,00000000,0000.36,0000.15,0000.17,0000.64,-000.13,-000.19,-000.09,-000.09,0000.20,18.3,24.5,07.5,05.1,0661.4,31.0
2021-07-15T06:32:00Z,00000200,00000000,0000.98,0000.26,0000.28,0000.32,0000.14,0000.52,-000.17,-000.34,-000.25,18.2,24.5,07.6,05.1,0661.4,31.0
2021-07-15T06:33:00Z,00000200,00000000,0000.28,0000.26,0000.04,0000.36,0000.06,0000.23,0000.39,0000.24,-000.11,18.2,24.5,07.5,05.1,0661.4,31.0
2021-07-15T06:34:00Z,00000200,00000000,0000.49,0000.16,0000.22,-000.03,-000.11,-000.09,-000.07,0000.40,0000.25,18.1,24.5,07.4,05.0,0661.4,31.0
2021-07-15T06:35:00Z,00000200,00000000,0000.14,0000.29,0000.46,0000.06,-000.04,0000.37,0000.08,-000.14,-000.06,18.1,24.4,07.5,05.1,0661.4,31.0
2021-07-15T06:36:00Z,00000200,00000000,0000.45,0000.20,0000.29,0000.83,0000.08,0000.27,-000.15,-000.22,0000.05,18.1,24.4,07.4,05.0,0661.5,31.0
2021-07-15T06:37:00Z,00000200,00000000,-000.05,0000.12,0000.24,0000.69,-000.25,0000.45,0000.02,0000.18,-000.05,18.2,24.4,07.3,05.0,0661.5,31.0
2021-07-15T06:38:00Z,00000200,00000000,0001.00,0000.13,0000.28,0000.55,-000.03,0000.25,-000.04,-000.29,-000.03,18.3,24.5,07.4,05.0,0661.5,31.0
2021-07-15T06:39:00Z,00000200,00000000,0000.56,0000.20,0000.35,0001.31,0000.01,-000.08,-000.07,0000.34,-000.09,18.3,24.5,07.2,04.9,0661.5,31.0
2021-07-15T06:40:00Z,00000200,00000000,0000.68,0000.09,0000.03,0000.39,-000.20,0000.17,-000.07,-000.28,0000.04,18.3,24.5,07.1,04.9,0661.5,31.0
2021-07-15T06:41:00Z,00000200,00000000,0001.06,-000.16,0000.44,0000.33,-000.12,0000.02,-000.09,-000.30,-000.39,18.3,24.5,07.2,04.9,0661.5,31.0
2021-07-15T06:42:00Z,00000200,00000000,0000.47,0000.24,0000.31,0000.52,0000.06,0000.28,-000.11,0000.04,-000.03,18.2,24.5,07.1,04.8,0661.5,31.0
2021-07-15T06:43:00Z,00000200,00000000,0000.32,0000.20,-000.15,0000.47,0000.10,0000.26,-000.32,0000.07,0000.33,18.2,24.5,07.1,04.8,0661.5,31.0
2021-07-15T06:44:00Z,00000200,00000000,0000.41,0000.40,0000.45,0000.08,0000.04,0000.33,0000.26,-000.07,-000.04,18.2,24.5,07.0,04.8,0661.5,31.0
2021-07-15T06:45:00Z,00000200,00000000,0001.27,0000.21,0000.22,0000.51,-000.01,0000.08,-000.08,-000.20,-000.29,18.1,24.4,06.9,04.7,0661.5,31.0
2021-07-15T06:46:00Z,00000200,00000000,0000.52,0000.49,0000.11,-000.02,0000.32,0000.07,-000.14,-000.19,0000.11,18.1,24.4,07.0,04.7,0661.5,31.0
2021-07-15T06:47:00Z,00000200,00000000,0000.39,0000.01,0000.09,0000.38,-000.12,0000.27,0000.43,-000.14,-000.14,18.1,24.4,06.8,04.6,0661.5,31.0
2021-07-15T06:48:00Z,00000200,00000000,0000.18,0000.21,0000.33,0000.52,0000.03,-000.15,-000.57,0000.33,-000.13,18.1,24.4,06.9,04.7,0661.4,31.0
2021-07-15T06:49:00Z,00000200,00000000,-000.50,0000.64,0000.12,0000.87,-000.11,0000.46,0000.02,-000.41,-000.05,18.0,24.4,06.8,04.6,0661.5,31.0
2021-07-15T06:50:00Z,00000200,00000000,0000.21,0000.34,0000.19,0000.41,0000.15,0000.42,-000.06,0000.27,0000.01,18.0,24.4,06.9,04.7,0661.4,31.0
2021-07-15T06:51:00Z,00000200,00000000,0001.10,0000.36,0000.23,0000.38,0000.05,-000.05,0000.22,-000.19,0000.03,18.0,24.4,06.8,04.6,0661.4,31.0
2021-07-15T06:52:00Z,00000200,00000000,0000.28,0000.52,0000.27,0000.11,0000.00,-000.07,0000.57,0000.55,0000.45,18.1,24.4,06.8,04.6,0661.4,31.0
2021-07-15T06:53:00Z,00000200,00000000,0000.68,0000.39,0000.09,0000.98,-000.08,-000.18,-000.69,-000.03,-000.21,18.2,24.4,06.8,04.7,0661.4,31.0
2021-07-15T06:54:00Z,00000200,00000000,0000.89,0000.18,0000.20,0000.47,0000.11,0000.03,0000.30,-000.01,-000.10,18.2,24.4,06.8,04.7,0661.4,31.0
2021-07-15T06:55:00Z,00000200,00000000,0000.65,0000.39,0000.31,0000.16,-000.17,0000.21,0000.03,0000.02,0000.03,18.3,24.4,06.7,04.6,0661.5,31.0
2021-07-15T06:56:00Z,00000200,00000000,0000.60,0000.74,0000.34,-000.25,-000.29,0000.18,-000.45,-000.18,0000.17,18.3,24.5,06.8,04.6,0661.5,31.0
2021-07-15T06:57:00Z,00000200,40000000,,,,,,,0000.42,0000.32,0000.28,18.3,24.5,06.7,04.6,0661.4,31.0
2021-07-15T06:58:00Z,00000200,60000000,,,,,,,-000.04,-000.46,-000.39,18.0,24.6,06.7,04.4,0660.5,31.0
2021-07-15T06:59:00Z,00000200,20000000,,,,,,,-000.08,-000.02,-000.34,18.0,24.7,06.6,04.4,0660.5,31.0
